Regional Weather Roundup
Issued by NWS

Home | Current Version | Previous Version | Text Only | Print | Product List | Glossary On
Versions: 1 2 3 4 5 6 7 8 9 10 11 12 13 14 15 16 17 18 19 20 21 22 23 24 25 26 27 28 29 30 31 32 33 34 35 36 37 38 39 40 41 42 43 44 45 46 47 48 49 50
000
ASUS43 KMPX 041210
RWRMN
WEATHER ROUNDUP FOR MINNESOTA
NATIONAL WEATHER SERVICE TWIN CITIES/CHANHASSEN MN
600 AM CST WED MAR 04 2015


NOTE: "FAIR" INDICATES FEW OR NO CLOUDS BELOW 12,000 FEET WITH NO
SIGNIFICANT WEATHER AND/OR OBSTRUCTIONS TO VISIBILITY. N/A MEANS
CURRENT SKY AND/OR WEATHER CONDITIONS ARE NOT AVAILABLE.

MNZ060>063-068>070-041300-
   Twin Cities Metro

CITY           SKY/WX    TMP DP  RH WIND       PRES   REMARKS
TWIN CITIES    FAIR       0  -9  65 W9        30.15R WCI -15
6HR MIN TEMP:   0; 6HR MAX TEMP:   6;

ST PAUL        CLEAR      2  -8  63 W14       30.16R WCI -16
CRYSTAL        CLEAR     -2 -10  69 W8        30.13R WCI -17
BLAINE         CLEAR      0  -8  71 SW7       30.12R WCI -13
LAKEVILLE      CLEAR     -2  -9  71 W8        30.14R WCI -17
EDEN PRAIRIE   FAIR      -3 -10  72 W6        30.14R WCI -15
6HR MIN TEMP:  -3; 6HR MAX TEMP:   6;

SOUTH ST PAUL  FAIR       1  -8  67 W6        30.15R WCI -10
LAKE ELMO      FAIR       0  -8  71 W6        30.13R WCI -12
$$
MNZ001>005-007-008-013>017-022>024-027-028-041300-
   Northwest Minnesota

CITY           SKY/WX    TMP DP  RH WIND       PRES   REMARKS
BEMIDJI        CLEAR     -9 -14  79 W9        30.00R WCI -27
HALLOCK        CLEAR    -11 -18  70 NW8       30.11R WCI -28
ROSEAU         CLEAR    -11 -18  70 NW8       30.05R WCI -28
WARROAD        CLEAR    -15 -20  76 W6        30.03R WCI -29
THIEF RVR FALL CLEAR     -9 -15  77 NW8       30.07R WCI -26
CROOKSTON      FAIR      -8 -13  77 NW12      30.13R WCI -27
FOSSTON        CLEAR    -11 -17  77 W9        30.06R WCI -29
DETROIT LAKES  CLEAR     -4  -9  77 NW12      30.07R WCI -22
MOORHEAD       CLEAR     -2  -8  78 W7        30.15R WCI -16
PARK RAPIDS    CLEAR    -12 -17  78 W9        30.01R WCI -30
MAHNOMEN       FAIR      -8 -13  75 W13       30.07R WCI -28
$$
MNZ006-009>011-018-025>026-041300-
   North Central Minnesota

CITY           SKY/WX    TMP DP  RH WIND       PRES   REMARKS
BAUDETTE       CLEAR    -13 -19  75 W9        29.99R WCI -31
FLAG ISLAND    PTCLDY   -15 -20  76 W8        29.99R WCI -32
INTL FALLS     CLEAR    -15 -20  78 W7        29.97R WCI -31
6HR MIN TEMP: -15; 6HR MAX TEMP:  -4; 6HR PCP:  0.01;

WASKISH        PTCLDY    -9 -15  77 W5        30.01R WCI -21
BIG FORK       FLURRIES -11 -17  77 CALM      29.97R
LONGVILLE      CLEAR    -11 -15  84 W6        30.01R WCI -25
GRAND RAPIDS   CLOUDY    -8 -11  84 W9        29.96R WCI -25
CRANE LAKE     FAIR     -11 -17  77 CALM      29.98R
ORR            FAIR     -13 -18  77 W3        29.92R
COOK           LGT SNOW -15 -20  76 W3        29.95R
WALKER         FAIR      -8 -14  77 W7        30.01R WCI -23
$$
MNZ012-019>021-037-041300-
   Northeast Minnesota

CITY           SKY/WX    TMP DP  RH WIND       PRES   REMARKS
DULUTH         PTCLDY    -7 -13  75 W10       29.94R WCI -25
6HR MIN TEMP:  -7; 6HR MAX TEMP:   1; 6HR PCP: TRACE;

ELY            CLEAR    -11 -17  77 W5        29.91R WCI -23
HIBBING        CLEAR    -12 -17  78 W6        29.96R WCI -26
EVELETH        FLURRIES  -8 -13  77 W5        29.95R WCI -19
DULUTH HARBOR  FAIR      -6 -11  77 CALM      30.07R
TWO HARBORS    CLEAR     -6 -11  77 W6        29.95R WCI -18
SILVER BAY     CLEAR     -6 -13  71 CALM      29.93R
GRAND MARAIS     N/A     -2 -11  65 W9        29.95R WCI -18
G MARAIS ARPRT CLEAR    -11 -20  64 NW13G25   29.76S WCI -32
$$
MNZ029>031-032-039>041-046>048-054>057-064-041300-
   West Central Minnesota

CITY           SKY/WX    TMP DP  RH WIND       PRES   REMARKS
FERGUS FALLS   PTCLDY    -8 -15  71 W7        30.17R WCI -22
WHEATON        PTCLDY    -8 -13  77 W6        30.18R WCI -21
MORRIS         MOCLDY    -6 -11  77 W10       30.13R WCI -23
ALEXANDRIA     CLEAR     -7 -12  79 W10       30.09R WCI -25
ELBOW LAKE     FAIR      -6 -11  78 W8        30.12R WCI -21
WADENA         CLEAR     -9 -15  77 W7        30.05R WCI -24
GLENWOOD       CLEAR     -9 -15  77 W9        30.11R WCI -27
APPLETON       CLEAR     -9 -15  77 W8        30.17R WCI -26
BENSON         CLEAR     -9 -17  70 CALM      30.14R
ORTONVILLE     PTCLDY    -4 -11  71 W6        30.16R WCI -16
MADISON        FAIR      -4 -11  71 W3        30.17R
WILLMAR        FAIR      -4 -11  71 W7        30.14R WCI -18
$$
MNZ033>034-036-042>043-049>051-058-059-041300-
   Central Minnesota

CITY           SKY/WX    TMP DP  RH WIND       PRES   REMARKS
ST CLOUD       CLEAR     -3 -10  72 W10       30.10R WCI -20
6HR MIN TEMP:  -4; 6HR MAX TEMP:   2;

SAUK CENTRE    FAIR      -8 -13  80 W10       30.10R WCI -27
PAYNESVILLE    CLEAR    -15 -19  84 SW5       30.12R WCI -28
AITKIN         CLEAR     -6 -13  71 W3        30.02R
PINE RIVER     CLEAR     -8 -13  77 W5        30.06R WCI -19
BRAINERD       CLEAR     -8 -13  78 W8        30.05R WCI -24
STAPLES        CLEAR     -9 -15  77 W9        30.05R WCI -27
LITTLE FALLS   CLEAR     -8 -15  71 SW3       30.10R
LITCHFIELD     CLEAR     -4  -8  84 CALM      30.13R
BUFFALO        CLEAR     -7 -12  78 SW3       30.14R
MAPLE LAKE     CLEAR     -3  -8  79 W5        30.13R WCI -13
$$
MNZ037-044-045-052-053-041300-
   East Central Minnesota

CITY           SKY/WX    TMP DP  RH WIND       PRES   REMARKS
PRINCETON      CLEAR     -4  -9  77 W6        30.09R WCI -16
MORA           CLEAR     -6 -13  71 W3        30.09R
CAMBRIDGE      CLEAR     -4 -11  71 SW2       30.09R
RUSH CITY      CLOUDY    -6 -11  79 W6        30.10R WCI -19
MOOSE LAKE     CLEAR     -9 -15  77 CALM      30.02R
HINCKLEY       FAIR      -9 -13  84 W3        30.07R
CLOQUET        CLEAR     -8 -15  71 W7        29.98R WCI -22
MCGREGOR       PTCLDY    -6  -9  84 W3        30.02R
$$
MNZ071>073-080-081-089-090-097-098-041300-
   Southwest Minnesota

CITY           SKY/WX    TMP DP  RH WIND       PRES   REMARKS
MONTEVIDEO     CLEAR     -6  -9  84 CALM      30.18R
GRANITE FALLS  CLEAR     -6 -12  77 CALM      30.19R
CANBY          CLEAR     -2  -9  73 W9        30.17R WCI -18
MARSHALL       CLEAR     -2 -11  65 W10       30.16R WCI -19
REDWOOD FALLS  CLEAR     -2  -9  72 SW8       30.17R WCI -17
OLIVIA         CLEAR     -2  -8  78 W7        30.16R WCI -16
PIPESTONE      CLEAR     -8 -11  84 W5        30.12R WCI -19
WINDOM         CLEAR     -4  -9  77 CALM      30.14S
WORTHINGTON    CLEAR      0  -8  71 W9        30.15S WCI -16
JACKSON        PTCLDY     1  -8  66 W7        30.14S WCI -11
TRACY          CLEAR     -2  -9  71 W7        30.15R WCI -15
SLAYTON        CLEAR     -3 -11  71 CALM      30.13R
$$
MNZ065>067-074>077-082>085-091>093-041300-
   South Central Minnesota

CITY           SKY/WX    TMP DP  RH WIND       PRES   REMARKS
MANKATO        CLEAR      1  -8  66 W10       30.15R WCI -14
NEW ULM        CLEAR     -8 -13  77 W7        30.17R WCI -22
ST JAMES       CLEAR      0  -8  71 W8        30.18R WCI -15
FAIRMONT       PTCLDY     1  -8  66 W8        30.15R WCI -12
GLENCOE        CLEAR     -5  -9  82 SW6       30.15R WCI -18
FARIBAULT      CLEAR      0  -8  71 W7        30.14R WCI -13
OWATONNA       CLEAR      0  -8  71 W8        30.13R WCI -15
WASECA         CLEAR      0  -8  71 W9        30.16R WCI -16
ALBERT LEA     CLEAR      1  -6  71 NW8       30.13R WCI -12
$$
MNZ078>079-086>088-094>096-041300-
   Southeast Minnesota

CITY           SKY/WX    TMP DP  RH WIND       PRES   REMARKS
ROCHESTER      CLEAR      0  -7  72 NW15      30.09R WCI -19
6HR MIN TEMP:   0; 6HR MAX TEMP:   6;

RED WING       CLEAR      0  -9  65 W8        30.13R WCI -15
STANTON        FAIR       0  -8  68 W8        30.13R WCI -14
DODGE CENTER   PTCLDY     0  -6  78 W12       30.10R WCI -18
WINONA         CLEAR      5  -4  66 W10       30.15R WCI -10
AUSTIN         CLEAR      1  -6  71 NW13      30.12R WCI -16
PRESTON        PTCLDY     1  -6  75 NW14      30.10R WCI -18
$$
ABBREVIATIONS USED IN REMARKS
   TC - TEMPERATURES IN CELSIUS
  WCI - WIND CHILL INDEX
   HX - HEAT INDEX
  VSB - VISIBILITY
$$



USA.gov is the U.S. government's official web portal to all federal, state and local government web resources and services.